CCSBE SCSN-SCSN

Flight info

Callsign CCSBE
Flight time N/A
Altitude 3500
Route DCT
Aircraft C172/L-VGD/A

Departure

Time 2026-04-25 22:22
Airport Santo Domingo Airport (SCSN)

Arrival

Time N/A
Airport Santo Domingo Airport (SCSN)
Time Latitude Longitude Altitude Speed Heading
2026-04-25 22:16 -33.65536 -71.61508 241 ft 0 kts 50°
2026-04-25 22:18 -33.65535 -71.61502 242 ft 0 kts 99°
2026-04-25 22:19 -33.65550 -71.61499 243 ft 5 kts 186°
2026-04-25 22:19 -33.65561 -71.61496 243 ft 1 kts 159°
2026-04-25 22:19 -33.65596 -71.61466 245 ft 10 kts 105°
2026-04-25 22:19 -33.65560 -71.61392 246 ft 11 kts 57°
2026-04-25 22:20 -33.65513 -71.61306 248 ft 14 kts 56°
2026-04-25 22:20 -33.65477 -71.61228 248 ft 7 kts 37°
2026-04-25 22:20 -33.65483 -71.61255 247 ft 7 kts 212°
2026-04-25 22:20 -33.65487 -71.61261 248 ft 0 kts 233°
2026-04-25 22:21 -33.65503 -71.61289 248 ft 21 kts 236°
2026-04-25 22:21 -33.65679 -71.61603 251 ft 67 kts 235°
2026-04-25 22:21 -33.65957 -71.62060 464 ft 70 kts 232°
2026-04-25 22:21 -33.66250 -71.62516 769 ft 65 kts 229°
2026-04-25 22:22 -33.66489 -71.62934 1016 ft 65 kts 228°
2026-04-25 22:22 -33.66773 -71.63430 1181 ft 76 kts 230°
2026-04-25 22:22 -33.66848 -71.64071 1390 ft 88 kts 276°
2026-04-25 22:22 -33.66611 -71.64495 1516 ft 98 kts 314°
2026-04-25 22:23 -33.65957 -71.64737 1736 ft 102 kts
2026-04-25 22:23 -33.65317 -71.64439 1926 ft 99 kts 46°
2026-04-25 22:23 -33.64744 -71.63975 2125 ft 99 kts 41°
2026-04-25 22:23 -33.64067 -71.63300 2377 ft 94 kts 56°
2026-04-25 22:24 -33.63752 -71.62935 2527 ft 90 kts 57°
2026-04-25 22:24 -33.63287 -71.62410 2678 ft 93 kts 47°
2026-04-25 22:24 -33.62651 -71.62129 2803 ft 100 kts 23°
2026-04-25 22:24 -33.62033 -71.61838 2978 ft 97 kts 31°
2026-04-25 22:25 -33.61399 -71.61565 3140 ft 102 kts 22°
2026-04-25 22:25 -33.60702 -71.61399 3324 ft 102 kts 11°
2026-04-25 22:25 -33.59981 -71.61347 3447 ft 107 kts 11°
2026-04-25 22:25 -33.59200 -71.61265 3491 ft 119 kts
2026-04-25 22:26 -33.58343 -71.61218 3491 ft 127 kts
2026-04-25 22:26 -33.57472 -71.61162 3538 ft 123 kts
2026-04-25 22:26 -33.56617 -71.61125 3517 ft 124 kts
2026-04-25 22:26 -33.55748 -71.61071 3490 ft 125 kts
2026-04-25 22:27 -33.54889 -71.61034 3484 ft 123 kts
2026-04-25 22:27 -33.54035 -71.61024 3505 ft 121 kts
2026-04-25 22:27 -33.53194 -71.60994 3515 ft 122 kts
2026-04-25 22:27 -33.52336 -71.60962 3505 ft 124 kts
2026-04-25 22:28 -33.51469 -71.60937 3503 ft 124 kts
2026-04-25 22:28 -33.50601 -71.60935 3512 ft 124 kts
2026-04-25 22:28 -33.49738 -71.60935 3522 ft 123 kts
2026-04-25 22:28 -33.48966 -71.60589 3522 ft 119 kts 43°
2026-04-25 22:29 -33.48480 -71.59866 3507 ft 108 kts 81°
2026-04-25 22:29 -33.48485 -71.59028 3486 ft 99 kts 107°
2026-04-25 22:29 -33.48585 -71.58213 3472 ft 98 kts 107°
2026-04-25 22:30 -33.48719 -71.56569 3510 ft 100 kts 105°
2026-04-25 22:30 -33.48914 -71.55790 3521 ft 98 kts 119°
2026-04-25 22:30 -33.49176 -71.55036 3518 ft 98 kts 121°
2026-04-25 22:30 -33.49346 -71.54532 3506 ft 98 kts 118°
2026-04-25 22:31 -33.49688 -71.53557 3521 ft 92 kts 123°
2026-04-25 22:31 -33.50000 -71.52873 3480 ft 93 kts 126°
2026-04-25 22:31 -33.50310 -71.52203 3473 ft 94 kts 125°
2026-04-25 22:31 -33.50686 -71.51568 3496 ft 91 kts 137°
2026-04-25 22:32 -33.51119 -71.51005 3495 ft 92 kts 137°
2026-04-25 22:32 -33.51555 -71.50445 3487 ft 92 kts 136°
2026-04-25 22:32 -33.51967 -71.49859 3477 ft 93 kts 130°
2026-04-25 22:32 -33.52324 -71.49214 3466 ft 92 kts 129°
2026-04-25 22:33 -33.52660 -71.48612 3474 ft 81 kts 131°
2026-04-25 22:33 -33.52964 -71.48065 3443 ft 75 kts 128°
2026-04-25 22:33 -33.53233 -71.47537 3463 ft 72 kts 130°
2026-04-25 22:33 -33.53506 -71.47037 3479 ft 73 kts 129°
2026-04-25 22:34 -33.53788 -71.46513 3505 ft 78 kts 129°
2026-04-25 22:34 -33.54080 -71.45947 3503 ft 82 kts 131°
2026-04-25 22:34 -33.54551 -71.45607 3468 ft 82 kts 169°
2026-04-25 22:34 -33.55087 -71.45757 3478 ft 83 kts 213°
2026-04-25 22:35 -33.55473 -71.46294 3480 ft 86 kts 222°
2026-04-25 22:35 -33.55863 -71.46853 3399 ft 87 kts 224°
2026-04-25 22:35 -33.56232 -71.47397 3255 ft 82 kts 220°